Temperature
17 17 17 17 17 18 18 18 18 18 18 18 18 17 17 17 17 17 16 16 16 16 16 16 16 16 16 15 15 15 15 15 15 15 15 15 15 14
17 17 17 17 17 17 17 17 17 17 17 17 17 17 17 17 17 16 16 16 16 16 16 16 15 15 15 15 15 15 15 15 15 15 15 14 14 14
16 16 16 16 17 17 17 17 17 17 17 17 17 17 16 16 16 16 16 15 15 15 15 15 15 15 15 15 15 15 15 14 14 14 14 14 14 14
16 16 16 16 16 16 16 16 16 16 16 16 16 16 16 15 15 15 15 15 15 15 15 15 15 14 14 14 14 14 14 14 14 14 14 13 13 13
16 16 16 16 16 16 16 16 16 16 15 15 15 15 15 15 15 15 14 14 14 14 14 14 14 14 13 13 13 13 13 13 13 13 13 13 13 13
15 15 15 15 15 15 15 15 15 15 15 15 15 14 14 14 14 14 14 14 14 13 13 13 13 13 13 13 12 12 12 12 12 12 12 12 12 12
15 15 14 14 14 14 14 14 14 14 14 14 13 13 13 13 13 13 12 12 12 12 12 12 12 12 12 12 11 11 11 11 11 11 11 11 11 11
14 14 14 14 14 14 14 13 13 13 13 13 12 12 12 12 12 12 11 12 12 12 11 11 11 11 11 11 10 10 10 10 10 10 9 9 9 10
13 13 13 13 13 13 13 13 12 12 12 12 12 12 11 11 11 11 11 11 11 10 10 10 10 10 10 10 10 9 9 9 9 9 8 8 9 9
13 12 12 12 12 12 12 12 11 11 11 11 11 10 10 10 10 10 10 10 10 9 9 9 9 9 9 9 9 9 8 8 8 8 8 7 7 7
12 12 11 11 11 11 11 10 10 10 10 10 10 9 9 9 9 9 9 9 9 8 8 8 8 8 8 8 8 8 8 7 7 7 7 7 7 6
11 11 11 10 10 10 10 10 9 9 9 9 9 8 8 8 8 8 8 8 7 7 7 7 7 7 7 7 7 7 7 7 7 6 6 6 6 6
10 10 10 9 9 9 9 9 8 8 8 8 8 8 7 7 7 7 7 7 7 6 6 6 6 6 5 5 6 6 6 6 6 6 6 6 5 5
9 9 9 9 9 8 8 8 8 8 8 8 7 7 7 7 6 6 6 6 6 6 6 6 5 5 5 5 5 5 5 5 5 5 5 5 5 5
9 8 8 8 8 8 7 7 7 7 7 7 7 7 6 6 6 6 6 6 6 6 6 5 5 5 5 4 4 5 5 5 5 5 5 4 4 4
8 8 8 8 7 7 7 7 7 6 6 6 6 6 6 6 6 5 5 5 5 5 5 5 5 5 4 4 4 4 5 4 4 4 4 4 4 4
8 7 7 7 7 7 7 6 6 6 6 6 6 6 5 5 5 5 5 5 5 5 5 5 4 4 4 4 4 4 4 4 4 4 3 3 3 4
7 7 7 7 7 7 6 6 6 5 5 5 5 5 5 5 5 5 5 4 4 4 4 4 4 4 4 4 4 4 4 3 3 3 3 3 3 3
7 7 7 7 6 6 6 6 5 5 5 5 5 5 4 4 4 4 4 4 4 4 4 4 4 3 3 3 3 4 3 3 3 3 3 3 3 3
7 6 6 6 6 6 5 5 5 5 4 4 4 4 4 4 4 4 4 4 4 4 4 4 3 3 3 3 3 3 4 3 3 3 3 3 3 3
6 6 6 6 5 5 5 4 4 4 4 4 4 4 4 4 4 4 4 3 3 3 3 3 3 3 3 3 3 3 3 3 3 3 3 3 3 3
6 6 5 5 5 4 4 4 4 4 4 3 3 3 3 3 3 3 3 3 3 3 3 3 3 3 3 3 3 3 3 3 3 3 3 3 3 3
6 5 5 5 4 4 4 4 4 3 3 3 3 3 3 3 3 3 3 3 3 3 3 3 3 3 3 3 3 3 3 3 3 3 3 3 3 3
Wind_Speed
4 4 3 2 2 2 1 1 1 1 2 1 0 1 3 6 9 7 5 11 13 11 10 9 9 8 8 8 8 8 8 8 8 8 9 10 10 11
3 2 2 2 2 1 1 2 2 1 1 1 0 2 3 3 5 2 1 5 9 10 10 9 8 7 6 6 6 6 6 6 6 7 7 8 8 9
3 2 2 0 2 2 2 2 2 1 1 2 1 2 3 3 3 1 0 3 4 8 8 7 6 6 5 4 4 4 3 3 4 5 6 6 7 8
2 1 1 1 0 2 2 2 2 1 1 1 1 2 2 2 1 1 2 2 1 4 7 6 5 3 3 2 2 1 0 1 3 4 4 6 6 7
3 3 2 2 2 2 2 3 3 3 1 0 1 2 2 3 3 3 3 3 4 3 4 4 3 2 2 2 3 4 4 4 4 4 5 6 7 8
5 5 5 4 4 3 3 3 3 3 2 2 2 3 3 4 4 3 3 3 4 5 6 4 3 3 3 5 6 7 6 6 5 5 6 7 8 9
6 7 8 11 11 8 5 5 4 4 3 3 3 3 4 4 4 3 3 3 3 4 3 3 2 2 3 7 6 6 5 4 4 5 6 7 9 10
7 7 8 9 12 14 15 14 11 7 5 5 5 5 5 5 5 4 4 4 3 3 3 3 1 1 1 5 7 6 4 2 2 3 5 7 10 12
6 6 7 7 8 8 10 12 14 14 11 7 6 5 4 5 5 5 4 4 3 3 3 3 3 3 4 2 5 5 3 2 3 4 6 9 11 14
8 7 8 7 7 7 9 10 9 9 9 7 6 5 5 4 4 4 5 5 3 3 4 3 4 4 4 4 5 6 6 7 7 8 9 11 12 14
9 9 8 7 9 9 8 8 7 6 10 10 8 6 6 7 7 5 6 5 4 4 5 4 4 5 4 3 4 5 8 9 10 12 12 13 13 13
9 9 13 11 11 11 8 7 6 4 3 2 2 2 2 5 7 6 5 5 5 3 5 5 5 5 5 4 5 8 8 9 11 12 13 13 13 11
8 8 7 11 12 11 9 6 4 2 1 1 2 2 3 3 5 6 5 3 3 3 4 4 4 4 4 5 6 6 8 8 8 9 10 12 13 10
8 7 7 10 10 10 7 6 6 4 2 2 3 3 3 3 2 3 3 3 4 5 4 2 2 3 5 6 6 6 6 8 7 5 8 11 12 14
8 10 9 8 6 4 4 5 4 4 4 4 4 4 3 2 2 3 4 6 7 6 3 3 2 3 4 6 6 6 6 5 5 4 5 5 6 8
7 7 5 3 2 1 1 2 2 4 3 4 4 3 3 2 2 3 4 4 4 3 4 5 4 3 4 6 6 6 5 5 5 4 4 5 8 10
4 3 3 2 2 3 3 3 3 4 4 4 3 4 4 4 4 4 4 4 4 5 5 4 8 9 7 6 5 5 5 5 6 5 6 6 6 6
2 2 3 3 4 4 4 3 4 5 4 4 4 4 4 4 4 3 4 4 5 5 5 5 5 5 6 6 5 5 5 6 6 6 6 7 7 6
2 4 5 4 4 4 4 4 4 4 3 4 4 4 4 4 4 4 4 4 5 5 5 5 5 5 7 9 7 9 7 7 6 6 6 6 7 7
2 5 4 4 5 5 5 5 4 4 4 4 4 4 4 4 4 5 4 4 5 5 5 5 4 5 6 8 8 9 10 6 5 6 6 6 6 8
5 5 5 5 5 5 5 4 4 3 4 4 4 4 5 5 4 5 5 6 5 5 6 6 5 8 6 6 7 6 6 10 10 6 6 6 6 5
5 5 4 4 4 4 3 3 3 3 4 4 5 5 5 5 5 6 5 5 5 6 7 6 6 6 6 7 8 8 7 7 10 13 10 9 5 5
4 3 3 4 4 3 3 3 4 5 5 5 5 5 6 5 5 5 5 5 6 7 7 7 6 6 7 7 7 7 9 8 6 6 6 11 14 16
Wind_Direction
223 218 238 274 270 287 323 336 285 286 272 264 95 99 124 129 150 177 182 194 201 205 212 221 229 235 241 246 250 253 257 261 266 271 275 276 276 276
217 217 210 283 311 329 13 357 356 302 291 357 41 70 55 98 132 157 169 174 193 201 208 215 221 227 235 244 251 257 265 274 280 285 288 289 289 290
218 209 183 293 6 10 17 7 358 355 296 319 41 57 60 46 68 344 227 145 179 200 202 204 209 215 220 227 237 249 264 281 295 304 309 311 310 307
187 146 139 200 87 358 6 352 347 4 353 318 358 36 42 40 20 341 14 41 62 158 181 183 189 197 205 205 201 187 22 0 353 348 342 335 329 322
112 92 71 50 48 38 23 360 357 357 37 193 346 41 43 23 23 13 18 34 24 86 129 151 154 159 169 142 117 93 70 50 32 15 1 350 340 332
91 84 73 63 50 39 35 14 355 354 13 34 52 53 39 19 30 8 6 16 14 31 44 65 110 126 115 112 110 100 86 71 56 34 12 356 344 335
93 87 80 78 70 64 60 39 27 28 31 39 54 54 40 29 16 348 3 0 21 30 14 9 56 108 128 131 124 116 101 82 55 27 5 350 341 334
108 102 96 85 82 79 73 64 55 52 45 51 52 56 42 24 6 2 13 2 348 5 350 327 1 2 115 142 147 144 138 111 27 357 342 333 328 324
95 92 91 78 80 87 82 72 59 54 56 68 68 54 44 18 3 359 1 341 310 318 331 326 359 2 0 106 165 183 207 249 284 304 314 315 316 315
84 89 90 76 65 79 85 76 65 54 58 70 75 63 58 24 360 347 340 329 329 10 13 348 359 351 345 323 247 235 252 266 273 281 291 300 308 311
72 67 73 71 58 70 88 91 86 76 74 84 91 91 69 41 23 13 7 360 359 16 20 3 352 341 323 313 325 279 282 284 289 290 290 294 302 311
85 73 65 68 61 58 74 77 73 53 54 80 98 104 79 50 41 35 21 3 355 0 22 5 353 349 329 337 351 329 316 315 309 305 302 299 302 308
95 83 70 68 64 59 65 70 62 8 347 48 81 73 57 53 47 35 31 11 355 341 353 1 343 346 330 321 322 327 335 331 327 324 324 323 318 309
96 95 93 83 72 63 62 47 29 15 7 39 55 48 47 42 25 355 342 310 276 257 273 304 313 326 322 318 318 324 328 322 326 329 334 338 333 324
97 108 112 105 88 73 68 42 28 27 25 35 40 37 31 13 336 339 335 321 302 293 284 250 266 301 306 305 310 315 317 318 334 334 339 337 322 317
108 116 120 118 113 89 66 52 63 49 24 27 26 18 5 360 3 4 354 337 329 339 356 350 323 305 297 295 299 304 318 322 330 334 333 316 312 315
123 146 154 150 137 120 98 77 63 49 30 16 15 14 10 9 12 10 354 343 349 350 348 343 337 327 309 303 313 324 328 328 327 326 322 313 305 310
72 106 97 81 73 71 69 69 64 50 18 6 18 18 10 3 358 358 353 356 356 346 339 335 334 334 332 328 332 331 326 320 314 309 310 312 309 309
62 85 75 66 60 55 54 53 55 55 21 2 16 15 0 350 353 355 354 359 350 335 329 330 341 347 338 331 325 322 309 304 305 308 310 310 308 307
75 79 78 70 60 50 46 37 33 43 28 360 13 10 356 349 354 351 350 2 342 325 327 334 344 345 326 311 306 305 306 301 308 308 308 304 299 300
76 71 69 66 62 57 46 26 19 38 27 354 13 4 352 349 352 345 345 351 338 331 338 335 329 319 300 301 308 309 308 316 311 294 299 304 306 307
75 77 72 71 69 61 51 14 4 35 27 9 11 359 350 347 344 340 342 342 340 338 334 324 320 322 319 317 316 316 316 316 317 316 299 283 288 299
72 75 83 78 73 69 46 10 18 35 30 11 1 351 345 343 336 335 337 340 336 332 329 327 328 324 320 315 316 318 322 323 320 318 313 307 296 285
Height
1557 1559 1560 1562 1563 1564 1565 1566 1567 1566 1567 1567 1567 1567 1568 1568 1568 1568 1568 1568 1568 1568 1568 1568 1568 1568 1568 1568 1569 1569 1569 1569 1568 1568 1568 1568 1568 1567
1555 1557 1558 1560 1561 1562 1563 1564 1564 1565 1565 1565 1565 1565 1566 1566 1566 1566 1566 1565 1565 1565 1565 1565 1565 1565 1565 1565 1564 1564 1564 1564 1564 1564 1563 1563 1563 1562
1553 1554 1555 1557 1558 1559 1560 1561 1562 1562 1563 1563 1563 1563 1563 1564 1563 1563 1563 1562 1562 1562 1562 1562 1562 1561 1561 1561 1560 1560 1560 1559 1559 1559 1558 1558 1557 1557
1550 1551 1553 1554 1555 1557 1557 1558 1559 1560 1560 1560 1561 1561 1561 1561 1561 1561 1560 1560 1559 1559 1559 1558 1558 1558 1558 1557 1556 1556 1555 1555 1554 1554 1553 1552 1552 1551
1547 1548 1550 1551 1553 1554 1554 1556 1556 1557 1557 1558 1558 1558 1558 1558 1558 1558 1558 1557 1557 1556 1555 1555 1555 1554 1554 1553 1552 1551 1551 1550 1549 1548 1547 1547 1546 1545
1544 1546 1547 1548 1550 1551 1552 1552 1553 1554 1554 1555 1555 1555 1555 1555 1555 1555 1555 1554 1554 1553 1552 1551 1551 1550 1550 1549 1548 1547 1547 1546 1545 1543 1542 1541 1540 1539
1542 1544 1545 1546 1547 1549 1549 1550 1551 1551 1552 1552 1552 1552 1552 1552 1552 1552 1552 1551 1551 1550 1549 1549 1548 1547 1546 1545 1544 1543 1542 1541 1540 1539 1537 1536 1534 1533
1540 1541 1542 1544 1545 1546 1547 1548 1549 1549 1549 1550 1550 1550 1550 1550 1550 1550 1549 1549 1548 1548 1547 1546 1546 1545 1543 1542 1541 1540 1539 1538 1536 1534 1532 1530 1529 1527
1538 1539 1541 1542 1543 1544 1545 1546 1546 1547 1548 1548 1548 1548 1548 1548 1548 1547 1547 1547 1546 1546 1545 1544 1544 1542 1541 1540 1539 1538 1536 1534 1532 1530 1528 1526 1524 1521
1537 1538 1540 1541 1542 1543 1543 1544 1545 1545 1546 1547 1548 1547 1547 1547 1547 1546 1545 1545 1545 1543 1543 1542 1541 1540 1539 1537 1536 1535 1533 1531 1529 1527 1525 1522 1520 1517
1536 1538 1539 1540 1541 1541 1543 1543 1544 1545 1546 1546 1547 1547 1546 1546 1546 1545 1544 1543 1543 1542 1541 1540 1538 1536 1536 1535 1534 1532 1530 1528 1526 1524 1521 1519 1516 1513
1536 1538 1539 1540 1541 1541 1542 1543 1544 1545 1546 1546 1547 1547 1546 1546 1545 1544 1543 1543 1541 1541 1539 1538 1537 1535 1533 1532 1531 1529 1527 1525 1523 1520 1518 1515 1512 1509
1536 1538 1539 1540 1541 1542 1542 1544 1545 1546 1547 1547 1547 1547 1547 1546 1545 1544 1543 1542 1541 1540 1539 1537 1535 1534 1532 1530 1528 1527 1524 1522 1519 1517 1514 1512 1509 1506
1537 1538 1540 1541 1542 1543 1544 1545 1546 1547 1548 1548 1548 1547 1547 1546 1545 1544 1543 1542 1541 1540 1538 1536 1534 1533 1530 1528 1526 1524 1522 1519 1517 1514 1511 1508 1505 1503
1539 1541 1542 1543 1544 1545 1546 1547 1547 1547 1548 1548 1548 1548 1548 1547 1546 1544 1543 1542 1540 1539 1537 1535 1534 1532 1530 1527 1524 1522 1519 1517 1514 1511 1508 1505 1502 1498
1542 1543 1544 1545 1546 1547 1548 1548 1549 1549 1549 1549 1549 1549 1548 1547 1546 1544 1543 1541 1540 1539 1537 1535 1533 1531 1528 1525 1523 1520 1517 1515 1512 1508 1505 1502 1499 1496
1543 1545 1546 1548 1548 1549 1550 1550 1551 1550 1550 1550 1550 1549 1548 1547 1546 1544 1543 1541 1540 1538 1536 1534 1532 1529 1527 1524 1521 1518 1515 1512 1509 1506 1502 1498 1495 1492
1546 1548 1549 1550 1551 1551 1552 1552 1552 1551 1551 1551 1550 1549 1548 1547 1546 1544 1542 1541 1539 1537 1535 1532 1530 1527 1524 1522 1520 1516 1513 1510 1506 1503 1500 1495 1491 1489
1549 1550 1551 1552 1553 1553 1553 1553 1553 1552 1552 1551 1550 1549 1548 1547 1546 1544 1542 1540 1538 1536 1534 1531 1528 1525 1522 1519 1517 1515 1511 1507 1504 1500 1497 1493 1489 1485
1551 1552 1553 1553 1554 1554 1554 1554 1554 1553 1552 1551 1550 1549 1548 1547 1545 1543 1542 1540 1537 1535 1533 1530 1528 1525 1522 1519 1514 1511 1509 1505 1502 1497 1494 1490 1486 1483
1553 1554 1555 1554 1554 1554 1554 1554 1554 1553 1552 1551 1550 1549 1548 1546 1545 1543 1541 1539 1537 1534 1532 1529 1526 1524 1520 1517 1513 1509 1506 1504 1500 1496 1491 1487 1483 1479
1554 1555 1555 1555 1555 1554 1554 1554 1554 1553 1552 1551 1550 1548 1547 1546 1544 1542 1540 1538 1536 1533 1531 1528 1525 1522 1518 1515 1511 1507 1503 1500 1497 1493 1489 1486 1482 1477
1555 1556 1556 1555 1555 1554 1554 1554 1554 1552 1551 1550 1548 1547 1546 1545 1543 1541 1539 1537 1535 1532 1529 1526 1523 1520 1517 1514 1510 1506 1502 1498 1494 1490 1487 1483 1480 1476